Torna al catalogo

METEOR 2-7 DEB

LostPO
NORAD 59993·DEBRIS·🇷🇺 Russia

Lanciato May 14, 1981 da Plesetsk Cosmodrome

Loading…

Prossimi Passaggi (prossime 24 ore)

TLE

ObsoletoSource: Space-Track

Epoca: Jun 29, 2026, 21:11 UTC

1 59993U 81043AB  26180.88269237  .00003436  00000-0  12011-2 0  9996
2 59993  81.2590  44.0807 0040312 326.2837  33.5784 14.34604378113797

Traccia METEOR 2-7 DEB in tempo reale con AllMySat

Download on the App Store